Location: Unspecified
(32.5099°N, 80.0190°W)
Time: 07:22:10
(UTC-05:00)

CZ-3 Stage 3 - Visible Passes

Search period start: 26 February 2017 00:00
Search period end: 08 March 2017 00:00
Orbit: 410 x 34791 km, 30.6° (Epoch: 24 February)

Date Brightness Start Highest point End Pass type
(mag) Time Alt. Az. Time Alt. Az. Time Alt. Az.
26 Feb 9.2 05:11:26 10° WNW 06:28:22 16° WNW 08:36:24 10° WNW visible
27 Feb 7.8 00:35:20 10° WSW 02:43:28 64° W 09:57:19 10° SSW visible
27 Feb 7.3 20:53:12 10° SSW 21:41:56 60° ESE 06:22:56 10° SE visible
28 Feb 7.2 18:37:56 10° ENE 00:29:19 32° E 02:21:38 10° E visible
01 Mar 9.2 05:01:55 10° WNW 06:19:15 16° WNW 08:27:59 10° WNW visible
02 Mar 7.8 00:26:31 10° WSW 02:34:34 64° W 09:48:06 10° SSW visible
02 Mar 7.3 20:44:16 10° SSW 21:29:12 61° ESE 06:14:02 10° SE visible
03 Mar 7.2 18:20:18 10° ENE 00:20:43 31° E 02:12:42 10° E visible
04 Mar 9.3 04:52:23 10° WNW 06:10:02 16° WNW 08:19:23 10° WNW visible
05 Mar 7.7 00:17:41 10° WSW 02:25:39 64° W 09:38:51 10° SSW visible
05 Mar 7.3 20:35:20 10° SSW 21:17:25 62° ESE 06:05:06 10° SE visible
06 Mar 7.1 17:56:43 10° E 00:12:06 31° E 02:03:46 10° E visible
07 Mar 9.3 04:42:50 10° WNW 06:00:44 17° WNW 08:10:34 10° WNW visible
